This is the latest recevied weather packets stored in our database for station/object Kozakov. If no packets are shown the sender has not sent any weather packets the latest 1 day(s).
| Time | Temp. | Humidity | Pressure | Rain* | Wind** | Luminosity | Snow |
|---|---|---|---|---|---|---|---|
| 1777973117 | 15° C | 55% | - | - | 0.89 m/s, 88° | - | - |
| 1777972819 | 15° C | 57% | - | - | 0.89 m/s, 83° | - | - |
| 1777972517 | 16.11° C | 56% | - | - | 0.89 m/s, 58° | - | - |
| 1777972217 | 15° C | 59% | - | - | 1.79 m/s, 79° | - | - |
| 1777971918 | 15° C | 60% | - | - | 0.89 m/s, 88° | - | - |
| 1777971618 | 15° C | 60% | - | - | 0.89 m/s, 110° | - | - |
| 1777971317 | 15° C | 62% | - | - | 1.79 m/s, 47° | - | - |
| 1777971017 | 13.89° C | 59% | - | - | 3.13 m/s, 81° | - | - |
| 1777970717 | 15° C | 62% | - | - | 1.79 m/s, 58° | - | - |
| 1777970418 | 15° C | 62% | - | - | 0.89 m/s, 65° | - | - |
| 1777970118 | 13.89° C | 62% | - | - | 3.13 m/s, 71° | - | - |
| 1777969818 | 13.89° C | 61% | - | - | 4.02 m/s, 79° | - | - |
| 1777969517 | 13.89° C | 64% | - | - | 3.13 m/s, 86° | - | - |
| 1777969221 | 13.89° C | 67% | - | - | 3.13 m/s, 69° | - | - |
| 1777968917 | 12.78° C | 67% | - | - | 1.79 m/s, 100° | - | - |
| 1777968617 | 12.78° C | 67% | - | - | 3.13 m/s, 96° | - | - |
| 1777968317 | 12.78° C | 65% | - | - | 1.79 m/s, 110° | - | - |
| 1777968017 | 13.89° C | 65% | - | - | 0.89 m/s, 128° | - | - |
| 1777967718 | 12.78° C | 65% | - | - | 1.79 m/s, 87° | - | - |
| 1777967418 | 12.78° C | 64% | - | - | 3.13 m/s, 86° | - | - |
| 1777967111 | 12.78° C | 66% | - | - | 3.13 m/s, 84° | - | - |
| 1777966817 | 12.78° C | 71% | - | - | 1.79 m/s, 77° | - | - |
| 1777966517 | 12.78° C | 77% | - | - | 1.79 m/s, 87° | - | - |
| 1777966218 | 12.78° C | 70% | - | - | 3.13 m/s, 84° | - | - |
| 1777965918 | 12.22° C | 73% | - | - | 3.13 m/s, 80° | - | - |
* Rain since midnight (hover to see other rain measurements)
** Current wind speed in m/s (hover to see current wind gust speed)